Regional Weather Roundup
Issued by NWS

Home | Current Version | Previous Version | Text Only | Print | Product List | Glossary On
Versions: 1 2 3 4 5 6 7 8 9 10 11 12 13 14 15 16 17 18 19 20 21 22 23 24 25 26 27 28 29 30 31 32 33 34 35 36 37 38 39 40 41 42 43 44 45 46 47 48 49 50
000
ASUS43 KLMK 010910
RWRKY
KENTUCKY REGIONAL WEATHER ROUNDUP
NATIONAL WEATHER SERVICE LOUISVILLE KY
500 AM EDT WED OCT 01 2014

NOTE "FAIR" INDICATES FEW OR NO CLOUDS BELOW 12,000 FEET
WITH NO SIGNIFICANT WEATHER AND/OR OBSTRUCTIONS TO VISIBILITY.

KYZ001>023-026-027-061>063-070>075-011000-
WESTERN AND SOUTH CENTRAL KENTUCKY

CITY           SKY/WX    TMP DP  RH WIND       PRES   REMARKS
PADUCAH        CLEAR     56  55  97 CALM      29.89S FOG
HENDERSON      NOT AVBL
OWENSBORO      CLEAR     64  61  90 E5        29.93S
HOPKINSVILLE   PTCLDY    58  55  92 NE1       29.92S
BOWLING GREEN  CLEAR     58  56  93 CALM      29.94S
GLASGOW        PTCLDY    56  56 100 CALM      29.94S
$$

KYZ024-025-028>034-038-045-046-053-011000-
NORTH CENTRAL KENTUCKY

CITY           SKY/WX    TMP DP  RH WIND       PRES   REMARKS
LOUISVILLE/SDF PTCLDY    61  56  83 VRB6      29.96F
LOUISVILLE/LOU CLEAR     59  55  87 NE6       29.97F
FORT KNOX      PTCLDY    60  58  92 NE6       29.95S
$$

KYZ035>037-039>044-047>052-055>060-089>105-011000-
NORTHEAST KENTUCKY

CITY           SKY/WX    TMP DP  RH WIND       PRES   REMARKS
LEXINGTON      CLEAR     57  54  89 NE6       29.97S
COVINGTON      CLEAR     53  48  83 NE3       29.98S
FRANKFORT      CLEAR     57  53  86 CALM      29.97S
$$

KYZ054-064>069-076>088-106>120-011000-
SOUTHEAST KENTUCKY

CITY           SKY/WX    TMP DP  RH WIND       PRES   REMARKS
JACKSON        MOCLDY    59  58  96 CALM      29.97S FOG
LONDON         CLEAR     55  53  93 CALM      29.97S FOG
SOMERSET       CLEAR     54  54 100 CALM      29.98R
MIDDLESBORO    FOG       53  53 100 CALM      29.99S VSB 1
MONTICELLO     MOSUNNY   52  52 100 CALM      29.98R FOG
$$



USA.gov is the U.S. government's official web portal to all federal, state and local government web resources and services.